This is the latest recevied weather packets stored in our database for station/object DK4HPA-4. If no packets are shown the sender has not sent any weather packets the latest 10 day(s).
| Time | Temp. | Humidity | Pressure | Rain* | Wind** | Luminosity | Snow |
|---|---|---|---|---|---|---|---|
| 1778243533 | 17.22° C | 38% | 1027.5 hPa | 0 mm | - | 628 W/m² | - |
| 1778242861 | 16.67° C | 39% | 1027.5 hPa | 0 mm | - | 623 W/m² | - |
| 1778242228 | 16.11° C | 39% | 1027.5 hPa | 0 mm | - | 637 W/m² | - |
| 1778241062 | 16.67° C | 40% | 1027.4 hPa | 0 mm | - | 633 W/m² | - |
| 1778239885 | 16.11° C | 40% | 1027.5 hPa | 0 mm | - | 652 W/m² | - |
| 1778239262 | 15.56° C | 41% | 1027.6 hPa | 0 mm | - | 660 W/m² | - |
| 1778238709 | 15.56° C | 40% | 1027.7 hPa | 0 mm | - | 659 W/m² | - |
| 1778238085 | 15° C | 43% | 1027.7 hPa | 0 mm | - | 661 W/m² | - |
| 1778237534 | 15° C | 42% | 1027.6 hPa | 0 mm | - | 675 W/m² | - |
| 1778236957 | 15° C | 43% | 1027.7 hPa | 0 mm | - | 668 W/m² | - |
| 1778236237 | 15° C | 44% | 1028 hPa | 0 mm | - | 642 W/m² | - |
| 1778235661 | 14.44° C | 44% | 1027.9 hPa | 0 mm | - | 684 W/m² | - |
| 1778235038 | 14.44° C | 44% | 1027.8 hPa | 0 mm | - | 691 W/m² | - |
| 1778234461 | 14.44° C | 43% | 1028.1 hPa | 0 mm | - | 732 W/m² | - |
| 1778233838 | 14.44° C | 42% | 1028.1 hPa | 0 mm | - | 698 W/m² | - |
| 1778232686 | 13.89° C | 46% | 1028.1 hPa | 0 mm | - | 751 W/m² | - |
| 1778231534 | 13.89° C | 47% | 1028.2 hPa | 0 mm | - | 717 W/m² | - |
| 1778229684 | 13.33° C | 53% | 1028 hPa | 0 mm | - | 709 W/m² | - |
| 1778229037 | 12.78° C | 55% | 1028.2 hPa | 0 mm | - | 688 W/m² | - |
| 1778227877 | 12.22° C | 58% | 1027.9 hPa | 0 mm | - | 640 W/m² | - |
| 1778227253 | 12.22° C | 58% | 1028 hPa | 0 mm | - | 591 W/m² | - |
| 1778226677 | 12.22° C | 59% | 1028 hPa | 0 mm | - | 590 W/m² | - |
| 1778226085 | 11.67° C | 60% | 1028 hPa | 0 mm | - | 566 W/m² | - |
| 1778225485 | 11.11° C | 61% | 1027.9 hPa | 0 mm | - | 529 W/m² | - |
| 1778224981 | 10.56° C | 62% | 1027.9 hPa | 0 mm | - | 471 W/m² | - |
* Rain latest hour (hover to see other rain measurements)
** Current wind speed in m/s (hover to see current wind gust speed)